{"data":{"norad_id":60365,"intl_designator":"2024-138L","name":"STARLINK-32188","alt_names":[],"object_type":"PAYLOAD","status":"ACTIVE","operator":null,"country":"US","launch_date":"2024-08-04","launch_site_code":"AFWTR","launch_vehicle":null,"mission":null,"orbit_class":"UNKNOWN","rcs_meters":null,"size_class":null,"mass_kg":null,"dimensions":null,"purposes":["comms"],"wikipedia_slug":null,"has_3d_model":false,"image_url":null,"decayed_at":null,"tle_current":{"epoch":"2026-05-24T21:13:33.466368Z","epoch_age_seconds":78963,"freshness":"FRESH","line1":"1 60365U 24138L   26144.88441512  .00000777  00000+0  36790-4 0  9997","line2":"2 60365  53.1615 315.6655 0001321  82.7060 277.4091 15.31701056102297","mean_motion":15.31701056,"eccentricity":0.0001321,"inclination_deg":53.1615,"raan_deg":315.6655,"arg_perigee_deg":82.706,"mean_anomaly_deg":277.4091,"bstar":3.679e-5,"rev_number":10229,"period_min":94.013123145617,"perigee_km":469.83211111117,"apogee_km":471.64158358164,"semimajor_km":6848.8738473464,"source":"CELESTRAK","updated_at":"2026-05-25T13:38:19.239788Z"}}}